Date,TemperatureHighF,TemperatureAvgF,TemperatureLowF,DewpointHighF,DewpointAvgF,DewpointLowF,HumidityHigh,HumidityAvg,HumidityLow,PressureMaxIn,PressureMinIn,WindSpeedMaxMPH,WindSpeedAvgMPH,GustSpeedMaxMPH,PrecipitationSumIn
2013-2-1,51,39,29,23,20,17,67,48,30,0.00,40.00,12,7,0,0.00
2013-2-2,62,46,33,38,32,22,85,61,32,0.00,40.00,15,6,0,0.00
2013-2-3,64,47,32,39,31,25,98,62,23,0.00,40.00,6,3,0,0.00
2013-2-4,53,49,46,49,42,31,96,77,51,0.00,40.00,7,3,0,0.03
2013-2-5,64,52,46,59,51,46,100,97,84,0.00,40.00,6,3,0,0.01
2013-2-6,58,50,44,56,50,44,100,98,89,0.00,40.00,15,5,0,0.02
2013-2-7,60,55,52,60,55,52,101,100,100,0.00,40.00,13,6,0,0.48
2013-2-8,62,51,43,53,39,33,100,68,35,0.00,40.00,18,8,0,0.47
2013-2-9,46,42,38,46,39,35,100,90,77,0.00,40.00,12,8,0,0.25
2013-2-10,65,54,41,56,44,32,101,75,30,0.00,40.00,13,7,0,0.76
2013-2-11,59,48,41,38,33,28,90,58,32,0.00,40.00,9,4,0,0.01
2013-2-12,43,41,38,43,39,34,100,94,82,0.00,40.00,9,5,0,0.44
2013-2-13,53,43,38,40,38,36,97,83,56,0.00,40.00,10,5,0,0.01
2013-2-14,65,42,31,51,37,31,100,84,34,0.00,40.00,10,3,0,0.00
2013-2-15,50,44,34,40,26,16,87,51,28,0.00,40.00,20,11,0,0.00
2013-2-16,49,38,30,28,18,9,84,50,21,0.00,40.00,14,6,0,0.00
2013-2-17,69,48,30,37,29,22,83,51,25,0.00,40.00,16,6,0,0.00
2013-2-18,70,57,50,59,44,32,84,63,34,0.00,40.00,17,11,0,0.06
2013-2-19,57,46,35,32,24,19,71,44,22,0.00,40.00,16,6,0,0.06
2013-2-20,42,36,33,36,32,28,98,86,61,0.00,40.00,11,7,0,0.62
2013-2-21,44,38,33,42,37,29,100,96,82,0.00,40.00,15,5,0,0.27
2013-2-22,46,37,29,38,28,24,100,71,45,0.00,40.00,11,8,0,0.01
2013-2-23,52,39,27,33,28,24,89,67,39,0.00,40.00,8,3,0,0.00
2013-2-24,62,46,29,38,34,28,96,67,39,0.00,40.00,14,7,0,0.00
2013-2-25,52,48,43,50,42,35,100,83,56,0.00,40.00,14,6,0,0.56
2013-2-26,53,42,37,41,34,29,99,78,41,0.00,40.00,13,8,0,0.02
2013-2-27,52,41,31,34,30,23,99,69,37,0.00,40.00,14,6,0,0.00
2013-2-28,53,42,31,32,28,26,82,59,37,0.00,40.00,9,7,0,0.00